Stations météo

Publicité
Kielder Castle, Grande-Bretagne (99186): Température de l'air & dewpoint: 14.09.2018 05:00:00 - 20.09.2018 05:00:00 (BST)Kielder Castle, Grande-Bretagne (99186): Température de l'air -20cm & Température de l'air -100cm: 14.09.2018 05:00:00 - 20.09.2018 05:00:00 (BST)Kielder Castle, Grande-Bretagne (99186): Quantités de précipitations: 14.09.2018 05:00:00 - 20.09.2018 05:00:00 (BST)
Date & Time tt [°C] td [°C] tt -20cm [°C] tt -100cm [°C] rr [mm]
20.09.2018 05:00:00 7,6 5,9 - - -
20.09.2018 04:00:00 7,8 5,8 - - 0,0
20.09.2018 03:00:00 8,0 6,0 - - 0,0
20.09.2018 02:00:00 8,4 6,7 - - 0,2
20.09.2018 01:00:00 8,2 7,0 - - 0,8
20.09.2018 00:00:00 8,1 6,6 - - 0,4
19.09.2018 23:00:00 8,8 5,2 - - 0,0
19.09.2018 22:00:00 8,9 6,0 - - 0,0
19.09.2018 21:00:00 8,1 5,6 - - 0,6
19.09.2018 20:00:00 8,9 5,0 - - 0,0
19.09.2018 19:00:00 9,5 4,7 - - 0,4
19.09.2018 18:00:00 10,9 5,8 - - 0,0
19.09.2018 17:00:00 10,8 7,8 - - 0,2
19.09.2018 16:00:00 10,1 8,0 - - 0,8
19.09.2018 15:00:00 12,1 7,1 - - 0,0
19.09.2018 14:00:00 12,6 6,3 - - 0,0
19.09.2018 13:00:00 15,0 10,7 - - 1,6
19.09.2018 12:00:00 13,3 12,1 - - 1,4
19.09.2018 11:00:00 14,9 10,4 - - 0,0
19.09.2018 10:00:00 14,2 11,0 14,2 13,9 0,0
19.09.2018 09:00:00 13,3 9,9 - - 0,0
19.09.2018 08:00:00 11,6 9,5 - - 0,0
19.09.2018 07:00:00 10,2 8,0 - - 0,0
19.09.2018 06:00:00 11,4 8,8 - - 0,0
19.09.2018 05:00:00 11,5 9,4 - - 0,0
19.09.2018 04:00:00 12,2 9,8 - - 0,0
19.09.2018 03:00:00 12,9 10,1 - - 0,0
19.09.2018 02:00:00 13,1 10,6 - - 0,0
19.09.2018 01:00:00 13,6 11,5 - - 0,0
19.09.2018 00:00:00 13,9 11,7 - - 0,0
18.09.2018 23:00:00 14,4 12,4 - - 0,0
18.09.2018 22:00:00 14,4 12,7 - - 0,2
18.09.2018 21:00:00 14,4 13,2 - - 0,4
18.09.2018 20:00:00 15,3 12,7 - - 0,0
18.09.2018 19:00:00 15,1 13,3 - - 0,0
18.09.2018 18:00:00 14,9 13,1 - - 0,0
18.09.2018 17:00:00 14,1 12,6 - - 0,0
18.09.2018 16:00:00 13,4 12,0 - - 0,0
18.09.2018 15:00:00 13,4 12,0 - - 0,2
18.09.2018 14:00:00 13,9 13,3 - - 0,2
18.09.2018 13:00:00 15,0 14,5 - - 0,4
18.09.2018 12:00:00 15,1 14,8 - - 0,6
18.09.2018 11:00:00 14,0 13,9 - - 0,0
18.09.2018 10:00:00 12,9 12,7 14,4 13,9 0,4
18.09.2018 09:00:00 12,6 12,4 - - 1,0
18.09.2018 08:00:00 12,3 12,1 - - 1,2
18.09.2018 07:00:00 12,5 11,9 - - 1,8
18.09.2018 06:00:00 13,1 11,8 - - 0,0
18.09.2018 05:00:00 11,6 11,5 - - 0,0
18.09.2018 04:00:00 11,8 11,3 - - 0,0
18.09.2018 03:00:00 12,9 12,2 - - 0,0
18.09.2018 02:00:00 13,8 13,0 - - 0,0
18.09.2018 01:00:00 14,0 13,3 - - 0,0
18.09.2018 00:00:00 14,5 13,7 - - 0,0
17.09.2018 23:00:00 14,2 13,6 - - 0,0
17.09.2018 22:00:00 14,3 13,5 - - 0,0
17.09.2018 21:00:00 15,0 14,0 - - 0,0
17.09.2018 20:00:00 15,6 14,2 - - 0,0
17.09.2018 19:00:00 16,0 14,2 - - 0,0
17.09.2018 18:00:00 16,3 15,1 - - 0,0
17.09.2018 17:00:00 15,8 15,2 - - 0,6
17.09.2018 16:00:00 15,6 14,6 - - 0,4
17.09.2018 15:00:00 17,2 13,1 - - 0,0
17.09.2018 14:00:00 16,1 11,8 - - 0,0
17.09.2018 13:00:00 14,4 10,5 - - 0,0
17.09.2018 12:00:00 14,6 11,2 - - 0,0
17.09.2018 11:00:00 13,1 11,1 - - 0,0
17.09.2018 10:00:00 12,8 10,9 14,2 13,9 0,0
17.09.2018 09:00:00 11,8 11,3 - - 0,0
17.09.2018 08:00:00 10,1 10,0 - - 0,0
17.09.2018 07:00:00 9,7 9,1 - - 0,0
17.09.2018 06:00:00 11,0 10,1 - - 0,0
17.09.2018 05:00:00 11,5 10,5 - - 0,0
17.09.2018 04:00:00 11,8 10,7 - - 0,0
17.09.2018 03:00:00 11,9 10,6 - - 0,0
17.09.2018 02:00:00 11,4 10,1 - - 0,0
17.09.2018 01:00:00 11,0 9,8 - - 0,0
17.09.2018 00:00:00 11,6 9,7 - - 0,0
16.09.2018 23:00:00 12,1 10,9 - - 0,0
16.09.2018 22:00:00 11,6 10,6 - - 0,0
16.09.2018 21:00:00 11,4 10,0 - - 0,0
16.09.2018 20:00:00 11,8 10,1 - - 0,0
16.09.2018 19:00:00 12,6 9,9 - - 0,0
16.09.2018 18:00:00 13,7 8,3 - - 0,0
16.09.2018 17:00:00 15,3 9,8 - - 0,0
16.09.2018 16:00:00 15,5 11,5 - - 0,0
16.09.2018 15:00:00 14,8 11,6 - - 0,0
16.09.2018 14:00:00 15,0 11,3 - - 0,0
16.09.2018 13:00:00 14,0 10,6 - - 0,0
16.09.2018 12:00:00 14,0 11,0 - - 0,0
16.09.2018 11:00:00 14,9 12,0 - - 0,0
16.09.2018 10:00:00 15,3 13,4 13,7 14,0 0,0
16.09.2018 09:00:00 14,4 13,4 - - 0,0
16.09.2018 08:00:00 14,4 13,9 - - 1,6
16.09.2018 07:00:00 13,5 13,3 - - 3,4
16.09.2018 06:00:00 12,3 11,9 - - 2,8
16.09.2018 05:00:00 11,9 11,5 - - 0,4
16.09.2018 04:00:00 11,4 10,8 - - 1,0
16.09.2018 03:00:00 11,1 10,5 - - 1,6
16.09.2018 02:00:00 11,5 10,2 - - 0,0
16.09.2018 01:00:00 11,8 10,0 - - 0,0
16.09.2018 00:00:00 11,7 9,5 - - 0,0
15.09.2018 23:00:00 10,7 9,4 - - 0,0
15.09.2018 22:00:00 10,9 9,4 - - 0,2
15.09.2018 21:00:00 11,2 9,6 - - 0,0
15.09.2018 20:00:00 11,5 10,2 - - 0,0
15.09.2018 19:00:00 11,6 9,4 - - 0,0
15.09.2018 18:00:00 13,0 10,3 - - 0,0
15.09.2018 17:00:00 12,8 10,2 - - 0,0
15.09.2018 16:00:00 13,0 8,7 - - 0,0
15.09.2018 15:00:00 13,6 8,0 - - 0,0
15.09.2018 14:00:00 13,0 9,0 - - 0,0
15.09.2018 13:00:00 12,0 8,0 - - 0,0
15.09.2018 12:00:00 11,6 8,2 - - 0,0
15.09.2018 11:00:00 10,1 8,3 - - 0,0
15.09.2018 10:00:00 8,8 8,6 13,7 14,0 0,0
15.09.2018 09:00:00 6,6 6,4 - - 0,0
15.09.2018 08:00:00 5,0 5,0 - - 0,0
15.09.2018 07:00:00 4,2 4,2 - - 0,0
15.09.2018 06:00:00 4,3 4,3 - - 0,0
15.09.2018 05:00:00 3,9 3,9 - - 0,0
15.09.2018 04:00:00 3,7 3,7 - - 0,0
15.09.2018 03:00:00 3,8 3,6 - - 0,0
15.09.2018 02:00:00 4,9 4,7 - - 0,0
15.09.2018 01:00:00 6,1 5,7 - - 0,0
15.09.2018 00:00:00 7,7 7,3 - - 0,0
14.09.2018 23:00:00 8,1 7,9 - - 0,2
14.09.2018 22:00:00 8,0 7,8 - - 0,0
14.09.2018 21:00:00 8,1 7,4 - - 0,0
14.09.2018 20:00:00 9,2 8,3 - - 0,0
14.09.2018 19:00:00 9,3 8,8 - - 1,0
14.09.2018 18:00:00 9,9 8,5 - - 2,4
14.09.2018 17:00:00 11,4 10,1 - - 0,4
14.09.2018 16:00:00 12,4 9,3 - - 0,0
14.09.2018 15:00:00 13,6 10,1 - - 0,0
14.09.2018 14:00:00 13,1 10,5 - - 0,0
14.09.2018 13:00:00 12,9 9,9 - - 0,0
14.09.2018 12:00:00 11,8 10,5 - - 0,0
14.09.2018 11:00:00 11,4 9,9 - - 0,0
14.09.2018 10:00:00 11,0 9,8 13,9 14,2 0,4
14.09.2018 09:00:00 10,8 9,3 - - 0,4
14.09.2018 08:00:00 11,1 9,7 - - 0,0
14.09.2018 07:00:00 10,9 9,6 - - 0,0
14.09.2018 06:00:00 10,3 9,3 - - 0,0
14.09.2018 05:00:00 10,5 9,2 - - 0,0

tt = Température de l'air
td = dewpoint
tt -20cm = Température de l'air -20cm
tt -100cm = Température de l'air -100cm
rr = Quantités de précipitations

stations d'obs. à proximité